TimeCST,TemperatureF,Dew PointF,Humidity,Sea Level PressureIn,VisibilityMPH,Wind Direction,Wind SpeedMPH,Gust SpeedMPH,PrecipitationIn,Events,Conditions,WindDirDegrees,DateUTC
12:15 AM,27.5,22.3,81,30.03,10.0,Calm,Calm,-,N/A,,Clear,0,2013-02-24 06:15:00
12:35 AM,27.3,22.3,81,30.05,10.0,Calm,Calm,-,N/A,,Clear,0,2013-02-24 06:35:00
12:55 AM,24.8,21.6,87,30.05,7.0,Calm,Calm,-,N/A,,Clear,0,2013-02-24 06:55:00
1:15 AM,25.3,21.6,86,30.05,10.0,Calm,Calm,-,N/A,,Clear,0,2013-02-24 07:15:00
1:35 AM,25.0,20.8,84,30.07,10.0,WSW,4.6,-,N/A,,Clear,240,2013-02-24 07:35:00
1:55 AM,24.6,22.1,90,30.06,7.0,Calm,Calm,-,N/A,,Clear,0,2013-02-24 07:55:00
2:15 AM,25.5,23.4,92,30.07,7.0,Calm,Calm,-,N/A,,Clear,0,2013-02-24 08:15:00
2:35 AM,24.3,22.5,93,30.05,7.0,Calm,Calm,-,N/A,,Clear,0,2013-02-24 08:35:00
2:55 AM,24.1,22.5,94,30.06,7.0,Calm,Calm,-,N/A,,Clear,0,2013-02-24 08:55:00
3:15 AM,23.7,22.1,94,30.07,7.0,Calm,Calm,-,N/A,,Clear,0,2013-02-24 09:15:00
3:35 AM,23.4,21.7,94,30.07,7.0,Calm,Calm,-,N/A,,Clear,0,2013-02-24 09:35:00
3:55 AM,24.3,22.6,94,30.07,7.0,Calm,Calm,-,N/A,,Clear,0,2013-02-24 09:55:00
4:15 AM,23.7,22.1,94,30.08,7.0,Calm,Calm,-,N/A,,Clear,0,2013-02-24 10:15:00
4:35 AM,23.2,21.7,94,30.09,5.0,Calm,Calm,-,N/A,,Clear,0,2013-02-24 10:35:00
4:55 AM,23.0,21.6,94,30.09,5.0,Calm,Calm,-,N/A,,Clear,0,2013-02-24 10:55:00
5:15 AM,23.4,21.7,94,30.09,7.0,Calm,Calm,-,N/A,,Clear,0,2013-02-24 11:15:00
5:35 AM,23.2,21.7,94,30.11,5.0,Calm,Calm,-,N/A,,Clear,0,2013-02-24 11:35:00
6:15 AM,22.8,21.6,95,30.11,4.0,Calm,Calm,-,N/A,,Clear,0,2013-02-24 12:15:00
6:35 AM,22.8,21.4,94,30.12,3.0,Calm,Calm,-,N/A,,Clear,0,2013-02-24 12:35:00
6:55 AM,23.7,22.6,96,30.13,3.0,Calm,Calm,-,N/A,,Clear,0,2013-02-24 12:55:00
7:15 AM,25.2,23.9,95,30.14,4.0,Calm,Calm,-,N/A,,Clear,0,2013-02-24 13:15:00
7:35 AM,27.5,26.1,94,30.15,5.0,Calm,Calm,-,N/A,,Clear,0,2013-02-24 13:35:00
7:55 AM,29.3,24.8,83,30.15,10.0,Calm,Calm,-,N/A,,Clear,0,2013-02-24 13:55:00
8:15 AM,30.0,23.5,77,30.15,10.0,Calm,Calm,-,N/A,,Clear,0,2013-02-24 14:15:00
8:35 AM,30.9,23.9,75,30.17,10.0,NNW,4.6,-,N/A,,Clear,330,2013-02-24 14:35:00
8:55 AM,32.0,23.4,70,30.17,10.0,Calm,Calm,-,N/A,,Clear,0,2013-02-24 14:55:00
9:15 AM,32.4,22.6,67,30.17,10.0,WNW,3.5,-,N/A,,Clear,300,2013-02-24 15:15:00
9:35 AM,33.3,23.0,66,30.17,10.0,Calm,Calm,-,N/A,,Clear,0,2013-02-24 15:35:00
9:55 AM,34.3,23.9,66,30.18,10.0,Calm,Calm,-,N/A,,Clear,0,2013-02-24 15:55:00
10:15 AM,35.8,23.5,61,30.17,10.0,Calm,Calm,-,N/A,,Clear,0,2013-02-24 16:15:00
10:35 AM,36.0,24.1,62,30.18,10.0,Calm,Calm,-,N/A,,Clear,0,2013-02-24 16:35:00
10:55 AM,36.5,23.5,59,30.17,10.0,North,3.5,-,N/A,,Clear,350,2013-02-24 16:55:00
11:15 AM,37.9,24.3,58,30.17,10.0,NNW,3.5,-,N/A,,Clear,340,2013-02-24 17:15:00
11:35 AM,37.6,21.9,53,30.16,10.0,Calm,Calm,-,N/A,,Clear,0,2013-02-24 17:35:00
11:55 AM,38.5,24.8,58,30.16,10.0,North,3.5,-,N/A,,Clear,10,2013-02-24 17:55:00
12:15 PM,39.2,25.9,59,30.15,10.0,Calm,Calm,-,N/A,,Clear,0,2013-02-24 18:15:00
12:35 PM,40.5,25.7,56,30.14,10.0,Calm,Calm,-,N/A,,Clear,0,2013-02-24 18:35:00
12:55 PM,41.0,25.5,54,30.14,10.0,Calm,Calm,-,N/A,,Clear,0,2013-02-24 18:55:00
1:15 PM,41.4,26.2,55,30.15,10.0,Calm,Calm,-,N/A,,Clear,0,2013-02-24 19:15:00
1:35 PM,41.9,27.1,56,30.14,10.0,Calm,Calm,-,N/A,,Clear,0,2013-02-24 19:35:00
1:55 PM,42.4,27.9,56,30.14,10.0,Calm,Calm,-,N/A,,Clear,0,2013-02-24 19:55:00
2:15 PM,43.3,26.8,52,30.13,10.0,Calm,Calm,-,N/A,,Clear,0,2013-02-24 20:15:00
2:55 PM,43.9,26.8,51,30.13,10.0,Calm,Calm,-,N/A,,Clear,0,2013-02-24 20:55:00
3:15 PM,44.4,27.3,51,30.13,10.0,Calm,Calm,-,N/A,,Clear,0,2013-02-24 21:15:00
3:35 PM,44.6,26.2,49,30.12,10.0,Calm,Calm,-,N/A,,Clear,0,2013-02-24 21:35:00
3:55 PM,44.6,26.6,49,30.12,10.0,Calm,Calm,-,N/A,,Clear,0,2013-02-24 21:55:00
4:15 PM,44.8,27.9,52,30.12,10.0,Calm,Calm,-,N/A,,Clear,0,2013-02-24 22:15:00
4:35 PM,44.1,26.8,51,30.12,10.0,Calm,Calm,-,N/A,,Clear,0,2013-02-24 22:35:00
4:55 PM,44.4,27.3,51,30.12,10.0,Calm,Calm,-,N/A,,Clear,0,2013-02-24 22:55:00
5:15 PM,43.0,28.4,56,30.12,10.0,Calm,Calm,-,N/A,,Clear,0,2013-02-24 23:15:00
5:35 PM,40.6,28.9,63,30.12,10.0,North,3.5,-,N/A,,Clear,350,2013-02-24 23:35:00
5:55 PM,39.7,28.9,65,30.13,10.0,ENE,3.5,-,N/A,,Clear,60,2013-02-24 23:55:00
6:15 PM,40.5,28.9,64,30.14,10.0,ENE,3.5,-,N/A,,Clear,70,2013-02-25 00:15:00
6:35 PM,37.0,28.4,71,30.14,10.0,ENE,3.5,-,N/A,,Clear,70,2013-02-25 00:35:00
6:55 PM,36.7,29.3,75,30.14,10.0,Calm,Calm,-,N/A,,Clear,0,2013-02-25 00:55:00
7:15 PM,36.1,29.3,76,30.14,10.0,NNE,3.5,-,N/A,,Clear,20,2013-02-25 01:15:00
7:35 PM,33.3,28.6,83,30.14,10.0,Calm,Calm,-,N/A,,Clear,0,2013-02-25 01:35:00
7:55 PM,33.8,29.1,83,30.14,10.0,Calm,Calm,-,N/A,,Clear,0,2013-02-25 01:55:00
8:15 PM,32.2,28.6,87,30.14,10.0,Calm,Calm,-,N/A,,Clear,0,2013-02-25 02:15:00
8:35 PM,32.2,28.4,86,30.14,10.0,Calm,Calm,-,N/A,,Clear,0,2013-02-25 02:35:00
8:55 PM,31.6,28.8,89,30.14,10.0,Calm,Calm,-,N/A,,Clear,0,2013-02-25 02:55:00
9:15 PM,30.9,27.7,88,30.14,10.0,Calm,Calm,-,N/A,,Clear,0,2013-02-25 03:15:00
9:35 PM,29.8,27.9,92,30.13,7.0,Calm,Calm,-,N/A,,Clear,0,2013-02-25 03:35:00
9:55 PM,29.7,28.4,95,30.13,7.0,Calm,Calm,-,N/A,,Clear,0,2013-02-25 03:55:00
10:15 PM,30.4,29.3,96,30.13,10.0,Calm,Calm,-,N/A,,Clear,0,2013-02-25 04:15:00
10:35 PM,30.6,29.7,96,30.13,5.0,Calm,Calm,-,N/A,,Clear,0,2013-02-25 04:35:00
10:55 PM,29.7,28.6,96,30.13,7.0,NW,3.5,-,N/A,,Clear,310,2013-02-25 04:55:00
11:15 PM,29.1,27.9,95,30.13,7.0,Calm,Calm,-,N/A,,Clear,0,2013-02-25 05:15:00
11:35 PM,30.2,28.8,94,30.11,7.0,NNE,3.5,-,N/A,,Clear,20,2013-02-25 05:35:00
11:55 PM,29.8,28.6,95,30.11,7.0,Calm,Calm,-,N/A,,Clear,0,2013-02-25 05:55:00